Date String (YYYY-MM-DD hh:mm:ss) UTC,Instrument flags,absolute air pressure of the measurement (hPa),sample flow rate (lpm),inlet stack bypass flow (lpm),air temperature of the measurement (°C),ambient temperature measured by the external sensor (°C),aerosol sample conditioner tube jacket temperature (°C),OPC LED temperature (°C),internal box temperature (°C),relative humidity of the measurement (%),span deviation,mass concentration of particles derived from Lorenz-Mie calculation of OPC scattering (μg/m³),mass concentration of particles derived from Lorenz-Mie calculation of OPC scattering (μg/m³),mass concentration of particles derived from Lorenz-Mie calculation of OPC scattering (μg/m³)
DateTimeUTC,F1_M11,P_M11,Q1_M11,Q2_M11,T1_M11,T2_M11,T3_M11,T4_M11,T5_M11,U1_M11,ZSPAN_M11,X0_M11,X2_M11,X1_M11
2024-01-10 23:00:00,SystemResetWarning,0812.1,4.99,000.00,019.1,019.0,000.0,027.3,020.3,7.2,0000.0,0002.69,0000.77,0000.46
2024-01-10 23:01:00,SystemResetWarning,0812.1,5.00,000.00,019.0,018.7,000.0,027.3,020.1,7.3,0000.0,0003.12,0000.74,0000.46
2024-01-10 23:02:00,SystemResetWarning,0812.0,5.00,000.00,018.9,018.4,000.0,027.3,020.0,7.3,0000.0,0004.78,0000.75,0000.46
2024-01-10 23:03:00,SystemResetWarning,0812.1,5.00,000.00,018.9,018.2,000.0,027.3,020.0,7.4,0000.0,0005.12,0000.75,0000.45
2024-01-10 23:04:00,SystemResetWarning,0812.1,5.00,000.00,018.9,018.0,000.0,027.3,020.0,7.5,0000.0,0005.06,0000.72,0000.45
2024-01-10 23:05:00,SystemResetWarning,0812.1,5.00,000.00,018.8,017.8,000.0,027.3,020.0,7.5,0000.0,0005.02,0000.71,0000.45
2024-01-10 23:06:00,SystemResetWarning,0812.1,5.00,000.00,018.8,017.7,000.0,027.3,020.0,7.6,0000.0,0004.94,0000.73,0000.46
2024-01-10 23:07:00,SystemResetWarning,0812.2,5.01,000.00,018.8,017.8,000.0,027.3,020.2,7.6,0000.0,0004.80,0000.71,0000.46
2024-01-10 23:08:00,SystemResetWarning,0812.3,5.01,000.00,018.9,018.6,000.0,027.3,020.7,7.5,0000.0,0004.81,0000.72,0000.45
2024-01-10 23:09:00,SystemResetWarning,0812.3,4.99,000.00,019.1,019.1,000.0,027.3,020.8,7.5,0000.0,0004.84,0000.75,0000.46
2024-01-10 23:10:00,SystemResetWarning,0812.2,4.99,000.00,019.1,019.0,000.0,027.3,020.3,7.6,0000.0,0003.88,0000.75,0000.45
2024-01-10 23:11:00,SystemResetWarning,0812.2,5.00,000.00,019.0,018.7,000.0,027.3,020.1,7.6,0000.0,0003.82,0000.74,0000.44
2024-01-10 23:12:00,SystemResetWarning,0812.1,5.00,000.00,019.0,018.5,000.0,027.3,020.0,7.6,0000.0,0003.72,0000.71,0000.44
2024-01-10 23:13:00,SystemResetWarning,0812.1,5.00,000.00,018.9,018.3,000.0,027.3,020.0,7.6,0000.0,0002.03,0000.70,0000.44
2024-01-10 23:14:00,SystemResetWarning,0812.3,5.00,000.00,018.9,018.0,000.0,027.3,020.0,7.6,0000.0,0001.39,0000.69,0000.44
2024-01-10 23:15:00,SystemResetWarning,0812.3,5.01,000.00,018.8,017.9,000.0,027.3,020.0,7.7,0000.0,0001.37,0000.68,0000.45
2024-01-10 23:16:00,SystemResetWarning,0812.3,5.00,000.00,018.8,017.8,000.0,027.3,020.0,7.7,0000.0,0001.61,0000.69,0000.45
2024-01-10 23:17:00,SystemResetWarning,0812.4,5.00,000.00,018.8,017.6,000.0,027.3,020.0,7.8,0000.0,0001.68,0000.71,0000.45
2024-01-10 23:18:00,SystemResetWarning,0812.3,5.00,000.00,018.8,017.6,000.0,027.3,020.2,7.8,0000.0,0001.84,0000.72,0000.45
2024-01-10 23:19:00,SystemResetWarning,0812.4,5.00,000.00,018.9,018.3,000.0,027.3,020.6,7.7,0000.0,0002.49,0000.75,0000.45
2024-01-10 23:20:00,SystemResetWarning,0812.4,5.00,000.00,019.1,019.0,000.0,027.3,020.8,7.7,0000.0,0002.46,0000.73,0000.45
2024-01-10 23:21:00,SystemResetWarning,0812.4,4.99,000.00,019.1,018.9,000.0,027.3,020.4,7.7,0000.0,0002.34,0000.69,0000.44
2024-01-10 23:22:00,SystemResetWarning,0812.4,5.00,000.00,019.0,018.7,000.0,027.3,020.1,7.7,0000.0,0002.29,0000.70,0000.44
2024-01-10 23:23:00,SystemResetWarning,0812.4,5.01,000.00,019.0,018.4,000.0,027.3,020.0,7.8,0000.0,0002.36,0000.72,0000.44
2024-01-10 23:24:00,SystemResetWarning,0812.4,5.00,000.00,019.0,018.2,000.0,027.3,020.0,7.8,0000.0,0002.22,0000.71,0000.44
2024-01-10 23:25:00,SystemResetWarning,0812.4,5.00,000.00,019.0,018.0,000.0,027.3,020.0,7.8,0000.0,0002.16,0000.70,0000.44
2024-01-10 23:26:00,SystemResetWarning,0812.5,4.99,000.00,018.9,017.8,000.0,027.3,020.0,7.8,0000.0,0002.10,0000.69,0000.44
2024-01-10 23:27:00,SystemResetWarning,0812.4,5.00,000.00,018.9,017.6,000.0,027.3,020.0,7.9,0000.0,0001.86,0000.68,0000.43
2024-01-10 23:28:00,SystemResetWarning,0812.4,5.01,000.00,018.9,017.4,000.0,027.3,020.0,7.9,0000.0,0001.79,0000.65,0000.42
2024-01-10 23:29:00,SystemResetWarning,0812.5,5.01,000.00,018.9,017.4,000.0,027.3,020.1,7.9,0000.0,0001.57,0000.63,0000.42
2024-01-10 23:30:00,SystemResetWarning,0812.5,5.01,000.00,019.0,018.0,000.0,027.3,020.5,7.9,0000.0,0000.96,0000.60,0000.43
2024-01-10 23:31:00,SystemResetWarning,0812.6,4.99,000.00,019.1,018.8,000.0,027.3,020.9,7.9,0000.0,0001.00,0000.63,0000.43
2024-01-10 23:32:00,SystemResetWarning,0812.6,4.99,000.00,019.1,018.9,000.0,027.3,020.5,7.9,0000.0,0001.05,0000.65,0000.44
2024-01-10 23:33:00,SystemResetWarning,0812.6,4.99,000.00,019.1,018.7,000.0,027.3,020.1,7.9,0000.0,0001.04,0000.65,0000.45
2024-01-10 23:34:00,SystemResetWarning,0812.5,5.01,000.00,019.0,018.4,000.0,027.3,020.0,8.0,0000.0,0001.09,0000.64,0000.45
2024-01-10 23:35:00,SystemResetWarning,0812.5,5.01,000.00,019.0,018.1,000.0,027.3,020.0,8.0,0000.0,0001.05,0000.63,0000.45
2024-01-10 23:36:00,SystemResetWarning,0812.5,5.00,000.00,019.0,017.9,000.0,027.3,020.0,8.0,0000.0,0001.11,0000.64,0000.45
2024-01-10 23:37:00,SystemResetWarning,0812.6,5.00,000.00,018.9,017.7,000.0,027.3,020.0,8.0,0000.0,0001.24,0000.67,0000.45
2024-01-10 23:38:00,SystemResetWarning,0812.6,5.00,000.00,018.9,017.5,000.0,027.3,020.0,8.1,0000.0,0001.42,0000.74,0000.46
2024-01-10 23:39:00,SystemResetWarning,0812.6,5.01,000.00,018.9,017.4,000.0,027.3,020.0,8.1,0000.0,0001.59,0000.80,0000.47
2024-01-10 23:40:00,SystemResetWarning,0812.6,5.01,000.00,018.9,017.3,000.0,027.3,020.0,8.2,0000.0,0001.58,0000.80,0000.47
2024-01-10 23:41:00,SystemResetWarning,0812.6,5.01,000.00,018.9,017.4,000.0,027.3,020.2,8.2,0000.0,0001.72,0000.85,0000.48
2024-01-10 23:42:00,SystemResetWarning,0812.7,5.00,000.00,019.0,018.2,000.0,027.3,020.6,8.3,0000.0,0001.73,0000.85,0000.48
2024-01-10 23:43:00,SystemResetWarning,0812.8,5.00,000.00,019.1,018.9,000.0,027.3,020.8,8.2,0000.0,0001.70,0000.84,0000.48
2024-01-10 23:44:00,SystemResetWarning,0812.8,4.98,000.00,019.1,018.8,000.0,027.3,020.4,8.3,0000.0,0001.72,0000.86,0000.48
2024-01-10 23:45:00,SystemResetWarning,0812.8,5.00,000.00,019.1,018.6,000.0,027.3,020.1,8.3,0000.0,0001.77,0000.86,0000.47
2024-01-10 23:46:00,SystemResetWarning,0812.8,5.00,000.00,019.0,018.3,000.0,027.3,020.0,8.4,0000.0,0001.76,0000.87,0000.48
2024-01-10 23:47:00,SystemResetWarning,0812.7,5.00,000.00,019.0,018.1,000.0,027.3,020.0,8.4,0000.0,0001.72,0000.87,0000.48
2024-01-10 23:48:00,SystemResetWarning,0812.8,5.00,000.00,018.9,017.8,000.0,027.3,020.0,8.5,0000.0,0001.67,0000.86,0000.48
2024-01-10 23:49:00,SystemResetWarning,0812.9,5.00,000.00,018.9,017.6,000.0,027.3,020.0,8.5,0000.0,0001.52,0000.82,0000.47
2024-01-10 23:50:00,SystemResetWarning,0812.9,5.00,000.00,018.9,017.5,000.0,027.3,020.0,8.5,0000.0,0001.39,0000.76,0000.47
2024-01-10 23:51:00,SystemResetWarning,0812.9,5.01,000.00,018.9,017.3,000.0,027.3,020.0,8.6,0000.0,0001.33,0000.74,0000.47
2024-01-10 23:52:00,SystemResetWarning,0812.9,5.00,000.00,018.9,017.2,000.0,027.3,020.0,8.7,0000.0,0001.25,0000.71,0000.46
2024-01-10 23:53:00,SystemResetWarning,0813.0,5.00,000.00,018.9,017.2,000.0,027.3,020.0,8.7,0000.0,0001.12,0000.65,0000.45
2024-01-10 23:54:00,SystemResetWarning,0813.0,5.01,000.00,018.9,017.4,000.0,027.3,020.3,8.8,0000.0,0001.16,0000.65,0000.45
2024-01-10 23:55:00,SystemResetWarning,0813.0,5.00,000.00,019.0,018.3,000.0,027.3,020.7,8.8,0000.0,0001.25,0000.66,0000.45
2024-01-10 23:56:00,SystemResetWarning,0813.0,4.99,000.00,019.1,018.8,000.0,027.3,020.7,8.7,0000.0,0001.20,0000.67,0000.44
2024-01-10 23:57:00,SystemResetWarning,0813.0,5.00,000.00,019.1,018.7,000.0,027.3,020.3,8.8,0000.0,0001.25,0000.70,0000.45
2024-01-10 23:58:00,SystemResetWarning,0813.0,5.00,000.00,019.0,018.5,000.0,027.3,020.1,8.8,0000.0,0001.39,0000.75,0000.46
2024-01-10 23:59:00,SystemResetWarning,0813.0,5.00,000.00,019.0,018.3,000.0,027.3,020.0,8.9,0000.0,0001.49,0000.77,0000.46
